Location: München
(48.1351°N, 11.5820°E)
Time: 20:01:59
(UTC+02:00)

ISS - Pass Details

Date: 21 May 2021
Orbit: 417 x 422 km, 51.6° (Epoch: 16 June)

Event Time Altitude Azimuth Distance (km) Brightness Sun altitude
Rises 22:07:20 0° 271° (W) 2,362 0.8 -10.2°
Reaches altitude 10° 22:09:29 10° 277° (W) 1,500 -0.2 -10.5°
Maximum altitude 22:12:44 46° 353° (N) 571 -2.7 -10.8°
Drops below altitude 10° 22:16:01 10° 68° (ENE) 1,504 -1.1 -11.2°
Sets 22:18:10 0° 75° (ENE) 2,370 -0.2 -11.4°
